Regional Weather Roundup
Issued by NWS Sterling, VA

Home | Current Version | Previous Version | Text Only | Print | Product List | Glossary On
Versions: 1 2 3 4 5 6 7 8 9 10 11 12 13 14 15 16 17 18 19 20 21 22 23 24 25 26 27 28 29 30 31 32 33 34 35 36 37 38 39 40 41 42 43 44 45 46 47 48 49 50
000
ASUS41 KLWX 270110
RWRLWX

REGIONAL WEATHER ROUNDUP
NATIONAL WEATHER SERVICE BALTIMORE MD/WASHINGTON DC
900 PM EDT FRI AUG 26 2016

Note: "FAIR" indicates few or no clouds below 12,000 feet
with no significant weather and/or obstructions to visibility.
 TC=TEMPERATURE CELSIUS

 * =Non NWS site. Station does not report precipitation (e.g. rain,
    snow, etc.), thunder, or fog.

DCZ001-MDZ009-015-VAZ040>042-051-053>054-270200-
WASHINGTON METRO

CITY           SKY/WX    TMP DP  RH WIND       PRES   REMARKS
WASHINGTON NAT PTCLDY    89  71  55 N5        30.05R HX  95
DULLES         PTCLDY    83  69  62 CALM      30.06R
ANDREWS AFB    CLEAR     81  73  77 CALM      30.05R
FT BELVOIR     CLEAR     78  75  88 CALM      30.05R
QUANTICO       CLEAR     83  77  82 NW7       30.05R HX  92
COLLEGE PARK*  CLEAR     79  72  78 CALM      30.05R
LEESBURG*      CLEAR     82  77  83 CALM      30.08R HX  91
MANASSAS*      CLEAR     81  77  89 CALM      30.06R
GAITHERSBURG*  CLEAR     77  72  83 CALM      30.11R

$$

MDZ006>007-011-014-270200-
BALTIMORE METRO

CITY           SKY/WX    TMP DP  RH WIND       PRES   REMARKS
BWI AIRPORT    PTCLDY    80  72  76 CALM      30.05R
MD SCIENCE CTR   N/A     87  71  58 MISG      30.05R HX  93
MARTIN STATE   PTCLDY    82  75  78 CALM      30.06R
ANNAPOLIS      CLEAR     83  76  79 NW3       30.04R HX  91
FORT MEADE*    CLEAR    N/A N/A N/A CALM      30.07R

$$

MDZ012-015-019>023-270200-
MARYLAND EASTERN SHORE

CITY           SKY/WX    TMP DP  RH WIND       PRES   REMARKS
OCEAN CITY     CLEAR     78  73  84 CALM      30.04R
SALISBURY      CLEAR     80  74  81 CALM      30.04R
BAY BRIDGE AP* CLEAR     82  73  74 CALM      30.05R
CAMBRIDGE*     CLEAR     79  73  83 CALM      30.04R
EASTON*        CLEAR     82  77  83 CALM      30.08R HX  91

$$

MDZ017>025-270200-
SOUTHERN MARYLAND

CITY           SKY/WX    TMP DP  RH WIND       PRES   REMARKS
PATUXENT RIVER PTCLDY    79  74  84 CALM      30.04R
ST INIGOES     CLEAR     80  75  84 CALM      30.04R
LEONARDTOWN*   CLEAR     79  72  78 CALM      30.06S

$$

MDZ003>005-270200-
NORTH CENTRAL MARYLAND

CITY           SKY/WX    TMP DP  RH WIND       PRES   REMARKS
FREDERICK*     MOCLDY    81  79  94 NW3       30.10R
HAGERSTOWN APT CLEAR     83  62  49 N6        30.09R

$$

MDZ501>502-270200-
WESTERN MARYLAND

CITY           SKY/WX    TMP DP  RH WIND       PRES   REMARKS
OAKLAND*       CLEAR     70  64  83 CALM      30.24S
CUMBERLAND*    CLEAR     81  68  65 NE3       30.14S

$$

VAZ025>031-270200-
SHENANDOAH VALLEY

CITY           SKY/WX    TMP DP  RH WIND       PRES   REMARKS
WINCHESTER*    CLEAR     77  70  78 CALM      30.10R
FRONT ROYAL*   FAIR      79  75  89 CALM      30.08R
LURAY*         FAIR      79  73  83 CALM      30.11R
NEW MARKET*    FAIR     N/A N/A N/A CALM      30.09R
STAUNTON*      CLOUDY    77  72  83 CALM      30.14R
WAYNESBORO*    FAIR      76  69  80 S3        30.14R

$$

WVZ021-048>050-054>055-270200-
EASTERN WEST VIRGINIA PANHANDLE

CITY           SKY/WX    TMP DP  RH WIND       PRES   REMARKS
MARTINSBURG    CLEAR     84  67  56 N5        30.08R
PETERSBURG*    CLEAR     77  71  83 W3        30.12R

$$

VAZ036>039-050-270200-
CENTRAL FOOTHILLS

CITY           SKY/WX    TMP DP  RH WIND       PRES   REMARKS
CHARLOTTESVILL CLOUDY    80  73  79 CALM      30.08R
CULPEPER*      CLOUDY    80  78  92 CALM      30.07R
ORANGE*          N/A     77  77 100 CALM      30.10R
GORDONSVILLE*  FAIR      81  75  83 CALM      30.07R
WARRENTON*     FAIR      79  71  77 CALM      30.06R

$$

VAZ055>057-270200-
NORTH AND CENTRAL PIEDMONT

CITY           SKY/WX    TMP DP  RH WIND       PRES   REMARKS
FREDERICKSBRG*   N/A     82  77  86 CALM      30.04R HX  90
STAFFORD*      MOCLDY    79  76  91 CALM      30.10R

$$

NCZ024-NYZ072-PAZ021-071-VAZ022-071-270200-
OTHER REGIONAL OBSERVATIONS

CITY           SKY/WX    TMP DP  RH WIND       PRES   REMARKS
NEW YORK CITY    N/A     84  61  45 MISG        N/A
PHILADELPHIA   CLEAR     87  64  46 NW9       30.04R
PITTSBURGH     PTCLDY    80  57  45 CALM      30.14R
ROANOKE        PTCLDY    84  71  65 CALM      30.13R
RICHMOND       PTCLDY    86  74  67 CALM      30.05R HX  94
RALEIGH        PTCLDY    86  75  69 SE3       30.06R HX  95

$$

ANZ530>537-270200-
MARINE OBSERVATIONS

STATION/POSITION TIME  TEMP    WIND        PRES
                       AIR SEA DIR/SP/G
                 (UTC) (F)     (DEG/KT/KT) (MB)
THOMAS PT LIGHT  0100   87 84   80/  2/  2 1018.9R
BALT KEY BRIDGE  0042   86      CALM  /  1 1017.3R
COVE POINT       0042   84     320/  2/  2 1017.9R
LEWISETTA        0042   86 85     CALM     1016.9R
SOLOMONS ISLAND  0042   85 85   CALM  /  1   N/A
PINEY POINT      0036          130/  3/  3   N/A

$$




USA.gov is the U.S. government's official web portal to all federal, state and local government web resources and services.